timestamp,wind_dir_avg,wind_spd_avg,wind_spd_max_dir,wind_spd_gust,battery_voltage,lat,long
2022-07-06 00:04:01+00:00,212.0,8.3,218.0,9.55,13.13,47.59359,-54.27349
2022-07-06 00:14:01+00:00,211.0,7.55,211.0,8.6,12.57,47.59359,-54.27349
2022-07-06 00:24:01+00:00,209.0,7.84,207.0,8.89,12.57,47.59359,-54.27349
2022-07-06 00:34:01+00:00,210.0,7.86,211.0,8.85,12.57,47.59359,-54.27349
2022-07-06 00:44:01+00:00,213.0,8.2,216.0,9.25,12.57,47.59359,-54.27349
2022-07-06 00:54:01+00:00,211.0,9.73,218.0,11.43,12.57,47.59359,-54.27349
2022-07-06 01:04:01+00:00,212.0,10.27,221.0,12.39,12.57,47.59359,-54.27349
2022-07-06 01:14:00+00:00,208.0,9.81,213.0,11.39,12.49,47.59359,-54.27349
2022-07-06 01:24:00+00:00,208.0,8.5,206.0,9.69,12.49,47.59359,-54.27349
2022-07-06 01:34:00+00:00,213.0,8.48,219.0,10.28,12.49,47.59359,-54.27349
2022-07-06 01:44:00+00:00,213.0,8.75,220.0,10.09,12.49,47.59359,-54.27349
2022-07-06 01:54:00+00:00,213.0,7.84,215.0,8.61,12.49,47.59359,-54.27349
2022-07-06 02:04:00+00:00,212.0,8.73,212.0,9.49,12.49,47.59359,-54.27349
2022-07-06 02:14:00+00:00,212.0,8.35,212.0,9.31,12.41,47.59359,-54.27349
2022-07-06 02:24:00+00:00,214.0,7.75,220.0,8.62,12.41,47.59359,-54.27349
2022-07-06 02:34:00+00:00,213.0,7.26,215.0,8.11,12.41,47.59359,-54.27349
2022-07-06 02:44:00+00:00,212.0,6.5,213.0,7.27,12.41,47.59359,-54.27349
2022-07-06 02:54:00+00:00,212.0,6.28,208.0,7.35,12.41,47.59359,-54.27349
2022-07-06 03:04:00+00:00,211.0,6.65,212.0,7.27,12.41,47.59359,-54.27349
2022-07-06 03:14:01+00:00,224.0,6.04,230.0,7.61,12.33,47.59359,-54.27349
2022-07-06 03:24:01+00:00,227.0,7.09,227.0,8.27,12.33,47.59359,-54.27349
2022-07-06 03:34:01+00:00,228.0,6.31,232.0,7.18,12.33,47.59359,-54.27349
2022-07-06 03:44:01+00:00,233.0,6.46,231.0,7.92,12.33,47.59359,-54.27349
2022-07-06 03:54:01+00:00,235.0,5.52,232.0,6.13,12.33,47.59359,-54.27349
2022-07-06 04:04:01+00:00,233.0,5.05,235.0,5.52,12.33,47.59359,-54.27349
2022-07-06 04:14:00+00:00,231.0,4.87,225.0,5.59,12.41,47.59359,-54.27349
2022-07-06 04:24:00+00:00,238.0,4.44,238.0,5.41,12.41,47.59359,-54.27349
2022-07-06 04:34:00+00:00,228.0,5.44,230.0,6.53,12.41,47.59359,-54.27349
2022-07-06 04:44:00+00:00,211.0,4.46,210.0,5.06,12.41,47.59359,-54.27349
2022-07-06 04:54:00+00:00,214.0,5.24,215.0,5.79,12.41,47.59359,-54.27349
2022-07-06 05:04:00+00:00,213.0,6.81,210.0,7.62,12.41,47.59359,-54.27349
2022-07-06 05:14:01+00:00,217.0,6.75,220.0,7.67,12.33,47.59359,-54.27349
2022-07-06 05:24:01+00:00,214.0,6.93,217.0,7.79,12.33,47.59359,-54.27349
2022-07-06 05:34:01+00:00,216.0,6.29,213.0,6.96,12.33,47.59359,-54.27349
2022-07-06 05:44:01+00:00,216.0,5.79,213.0,6.37,12.33,47.59359,-54.27349
2022-07-06 05:54:01+00:00,222.0,5.85,216.0,6.36,12.33,47.59359,-54.27349
2022-07-06 06:04:01+00:00,231.0,4.85,231.0,5.4,12.33,47.59359,-54.27349
2022-07-06 06:14:00+00:00,247.0,3.88,241.0,4.38,12.33,47.59359,-54.27349
2022-07-06 06:24:00+00:00,236.0,4.87,239.0,5.4,12.33,47.59359,-54.27349
2022-07-06 06:34:00+00:00,198.0,6.0,202.0,7.02,12.33,47.59359,-54.27349
2022-07-06 06:44:00+00:00,202.0,6.36,201.0,7.14,12.33,47.59359,-54.27349
2022-07-06 06:54:00+00:00,210.0,6.08,205.0,6.99,12.33,47.59359,-54.27349
2022-07-06 07:04:00+00:00,215.0,5.73,215.0,6.5,12.33,47.59359,-54.27349
2022-07-06 07:14:00+00:00,209.0,5.26,208.0,5.88,12.25,47.59359,-54.27349
2022-07-06 07:24:00+00:00,200.0,6.29,199.0,6.97,12.25,47.59359,-54.27349
2022-07-06 07:34:00+00:00,208.0,6.69,209.0,7.43,12.25,47.59359,-54.27349
2022-07-06 07:44:00+00:00,212.0,6.7,213.0,7.12,12.25,47.59359,-54.27349
2022-07-06 07:54:00+00:00,213.0,6.18,212.0,6.56,12.25,47.59359,-54.27349
2022-07-06 08:04:00+00:00,211.0,7.24,213.0,7.89,12.25,47.59359,-54.27349
2022-07-06 08:14:00+00:00,211.0,7.35,219.0,8.61,12.33,47.59359,-54.27349
2022-07-06 08:24:00+00:00,211.0,5.79,208.0,6.55,12.33,47.59359,-54.27349
2022-07-06 08:34:00+00:00,225.0,4.16,220.0,4.88,12.33,47.59359,-54.27349
2022-07-06 08:44:00+00:00,227.0,2.59,236.0,3.17,12.33,47.59359,-54.27349
2022-07-06 08:54:00+00:00,206.0,5.6,204.0,6.3,12.33,47.59359,-54.27349
2022-07-06 09:04:00+00:00,216.0,6.28,216.0,7.23,12.33,47.59359,-54.27349
2022-07-06 09:14:00+00:00,229.0,5.3,238.0,7.22,12.97,47.59359,-54.27349
2022-07-06 09:24:00+00:00,238.0,3.93,245.0,4.55,12.97,47.59359,-54.27349
2022-07-06 09:34:00+00:00,203.0,5.47,204.0,6.11,12.97,47.59359,-54.27349
2022-07-06 09:44:00+00:00,200.0,5.88,200.0,6.86,12.97,47.59359,-54.27349
2022-07-06 09:54:00+00:00,219.0,6.19,239.0,9.29,12.97,47.59359,-54.27349
2022-07-06 10:04:00+00:00,219.0,10.15,227.0,12.62,12.97,47.59359,-54.27349
2022-07-06 10:14:00+00:00,220.0,6.86,236.0,10.42,13.21,47.59359,-54.27349
2022-07-06 10:24:00+00:00,233.0,9.28,240.0,11.77,13.21,47.59359,-54.27349
2022-07-06 10:34:00+00:00,215.0,5.66,214.0,6.24,13.21,47.59359,-54.27349
2022-07-06 10:44:00+00:00,220.0,6.47,230.0,9.29,13.21,47.59359,-54.27349
2022-07-06 10:54:00+00:00,221.0,6.16,242.0,9.57,13.21,47.59359,-54.27349
2022-07-06 11:04:00+00:00,221.0,6.58,236.0,10.11,13.21,47.59359,-54.27349
2022-07-06 11:14:00+00:00,225.0,8.37,238.0,10.67,13.05,47.59359,-54.27349
2022-07-06 11:24:00+00:00,222.0,7.45,238.0,10.91,13.05,47.59359,-54.27349
2022-07-06 11:34:00+00:00,240.0,9.81,243.0,10.99,13.05,47.59359,-54.27349
2022-07-06 11:44:00+00:00,219.0,5.38,212.0,6.63,13.05,47.59359,-54.27349
2022-07-06 11:54:00+00:00,219.0,5.29,237.0,7.44,13.05,47.59359,-54.27349
2022-07-06 12:04:00+00:00,215.0,6.29,228.0,7.67,13.05,47.59359,-54.27349
2022-07-06 12:14:00+00:00,212.0,5.4,206.0,6.38,13.76,47.59359,-54.27349
2022-07-06 12:24:00+00:00,211.0,7.15,215.0,8.08,13.76,47.59359,-54.27349
2022-07-06 12:34:00+00:00,212.0,7.68,220.0,9.03,13.76,47.59359,-54.27349
2022-07-06 12:44:00+00:00,227.0,9.91,230.0,11.57,13.76,47.59359,-54.27349
2022-07-06 12:54:00+00:00,217.0,7.83,231.0,10.08,13.76,47.59359,-54.27349
2022-07-06 13:04:00+00:00,218.0,8.73,227.0,10.88,13.76,47.59359,-54.27349
2022-07-06 13:14:00+00:00,219.0,8.97,222.0,10.82,13.53,47.59359,-54.27349
2022-07-06 13:24:00+00:00,223.0,7.29,233.0,10.02,13.53,47.59359,-54.27349
2022-07-06 13:34:00+00:00,219.0,6.82,233.0,9.94,13.53,47.59359,-54.27349
2022-07-06 13:44:00+00:00,220.0,9.28,234.0,11.67,13.53,47.59359,-54.27349
2022-07-06 13:54:00+00:00,214.0,8.07,229.0,10.85,13.53,47.59359,-54.27349
2022-07-06 14:04:00+00:00,210.0,7.45,207.0,8.4,13.53,47.59359,-54.27349
2022-07-06 14:14:01+00:00,212.0,8.59,228.0,12.34,13.68,47.59359,-54.27349
2022-07-06 14:24:01+00:00,215.0,10.64,222.0,13.35,13.68,47.59359,-54.27349
2022-07-06 14:34:01+00:00,214.0,10.18,223.0,13.1,13.68,47.59359,-54.27349
2022-07-06 14:44:01+00:00,224.0,12.58,225.0,13.83,13.68,47.59359,-54.27349
2022-07-06 14:54:01+00:00,230.0,11.61,225.0,13.69,13.68,47.59359,-54.27349
2022-07-06 15:04:01+00:00,229.0,11.32,229.0,12.76,13.68,47.59359,-54.27349
2022-07-06 15:14:00+00:00,236.0,10.96,235.0,11.85,14.08,47.59359,-54.27349
2022-07-06 15:24:00+00:00,232.0,11.97,231.0,13.03,14.08,47.59359,-54.27349
2022-07-06 15:34:00+00:00,229.0,10.35,231.0,12.43,14.08,47.59359,-54.27349
2022-07-06 15:44:00+00:00,224.0,12.41,223.0,13.61,14.08,47.59359,-54.27349
2022-07-06 15:54:00+00:00,223.0,11.29,223.0,13.0,14.08,47.59359,-54.27349
2022-07-06 16:04:00+00:00,220.0,10.21,222.0,12.48,14.08,47.59359,-54.27349
2022-07-06 16:14:01+00:00,218.0,10.65,221.0,11.76,13.6,47.59359,-54.27349
2022-07-06 16:24:01+00:00,216.0,9.74,224.0,11.29,13.6,47.59359,-54.27349
2022-07-06 16:34:01+00:00,218.0,9.64,221.0,11.58,13.6,47.59359,-54.27349
2022-07-06 16:44:01+00:00,217.0,10.79,218.0,12.11,13.6,47.59359,-54.27349
2022-07-06 16:54:01+00:00,222.0,9.47,225.0,11.61,13.6,47.59359,-54.27349
2022-07-06 17:04:01+00:00,214.0,9.96,217.0,11.42,13.6,47.59359,-54.27349
2022-07-06 17:14:00+00:00,215.0,9.55,216.0,12.1,13.76,47.59359,-54.27349
2022-07-06 17:24:00+00:00,204.0,7.99,209.0,9.34,13.76,47.59359,-54.27349
2022-07-06 17:34:00+00:00,212.0,8.16,225.0,10.2,13.76,47.59359,-54.27349
2022-07-06 17:44:00+00:00,220.0,8.22,234.0,11.09,13.76,47.59359,-54.27349
2022-07-06 17:54:00+00:00,213.0,7.97,227.0,11.52,13.76,47.59359,-54.27349
2022-07-06 18:04:00+00:00,217.0,9.76,224.0,12.36,13.76,47.59359,-54.27349
2022-07-06 18:14:01+00:00,227.0,10.01,228.0,12.03,13.68,47.59359,-54.27349
2022-07-06 18:24:01+00:00,224.0,10.91,226.0,12.15,13.68,47.59359,-54.27349
2022-07-06 18:34:01+00:00,224.0,10.4,228.0,12.37,13.68,47.59359,-54.27349
2022-07-06 18:44:01+00:00,224.0,10.55,234.0,12.27,13.68,47.59359,-54.27349
2022-07-06 18:54:01+00:00,212.0,7.67,223.0,9.54,13.68,47.59359,-54.27349
2022-07-06 19:04:01+00:00,206.0,5.88,206.0,6.9,13.68,47.59359,-54.27349
2022-07-06 19:14:00+00:00,195.0,5.25,198.0,5.83,13.68,47.59359,-54.27349
2022-07-06 19:24:00+00:00,197.0,6.01,196.0,6.62,13.68,47.59359,-54.27349
2022-07-06 19:34:00+00:00,200.0,9.6,193.0,11.41,13.68,47.59359,-54.27349
2022-07-06 19:44:00+00:00,208.0,8.85,210.0,10.16,13.68,47.59359,-54.27349
2022-07-06 19:54:00+00:00,211.0,6.75,213.0,7.58,13.68,47.59359,-54.27349
2022-07-06 20:04:00+00:00,201.0,5.43,202.0,6.24,13.68,47.59359,-54.27349
2022-07-06 20:14:01+00:00,204.0,5.3,204.0,5.89,13.37,47.59359,-54.27349
2022-07-06 20:24:01+00:00,211.0,5.62,219.0,6.65,13.37,47.59359,-54.27349
2022-07-06 20:34:01+00:00,216.0,7.17,217.0,7.75,13.37,47.59359,-54.27349
2022-07-06 20:44:01+00:00,216.0,6.6,208.0,7.72,13.37,47.59359,-54.27349
2022-07-06 20:54:01+00:00,212.0,7.68,216.0,8.4,13.37,47.59359,-54.27349
2022-07-06 21:04:01+00:00,220.0,5.28,217.0,5.88,13.37,47.59359,-54.27349
2022-07-06 21:14:01+00:00,229.0,4.06,225.0,4.51,13.21,47.59359,-54.27349
2022-07-06 21:24:01+00:00,217.0,3.55,215.0,4.32,13.21,47.59359,-54.27349
2022-07-06 21:34:01+00:00,219.0,5.02,215.0,5.92,13.21,47.59359,-54.27349
2022-07-06 21:44:01+00:00,223.0,5.71,230.0,6.61,13.21,47.59359,-54.27349
2022-07-06 21:54:01+00:00,205.0,5.85,208.0,6.34,13.21,47.59359,-54.27349
2022-07-06 22:04:01+00:00,188.0,5.88,188.0,6.22,13.21,47.59359,-54.27349
2022-07-06 22:14:00+00:00,210.0,3.69,209.0,4.3,12.89,47.59359,-54.27349
2022-07-06 22:24:00+00:00,210.0,4.07,210.0,4.46,12.89,47.59359,-54.27349
2022-07-06 22:34:00+00:00,224.0,4.56,226.0,5.44,12.89,47.59359,-54.27349
2022-07-06 22:44:00+00:00,201.0,4.81,198.0,5.63,12.89,47.59359,-54.27349
2022-07-06 22:54:00+00:00,212.0,4.87,212.0,6.01,12.89,47.59359,-54.27349
2022-07-06 23:04:00+00:00,174.0,3.88,175.0,4.72,12.89,47.59359,-54.27349
2022-07-06 23:14:00+00:00,185.0,2.7,186.0,2.91,12.49,47.59359,-54.27349
2022-07-06 23:24:00+00:00,198.0,2.34,200.0,2.5,12.49,47.59359,-54.27349
2022-07-06 23:34:00+00:00,211.0,2.48,209.0,2.86,12.49,47.59359,-54.27349
2022-07-06 23:44:00+00:00,199.0,2.63,199.0,2.79,12.49,47.59359,-54.27349
2022-07-06 23:54:00+00:00,186.0,1.28,191.0,1.46,12.49,47.59359,-54.27349
